Temperature
18 18 18 18 18 18 18 18 18 18 18 18 18 18 18 18 18 18 18 18 18 17 17 17 17 17 17 17 17 17 17 17 17 17 16 16 16 16 16 16 16 16 16
18 18 18 18 18 18 18 18 18 18 18 18 18 18 18 18 18 18 18 17 17 17 17 17 17 17 17 17 17 17 17 17 17 17 17 16 16 16 16 16 16 16 16
18 18 18 18 18 18 18 18 18 18 18 18 18 18 18 18 18 18 17 17 17 17 17 17 17 17 17 17 17 17 17 17 17 17 17 16 16 16 16 16 16 16 16
18 18 18 18 18 18 18 18 18 18 18 18 18 18 17 17 17 17 17 17 17 17 17 17 17 17 17 17 17 17 17 17 17 17 17 16 16 16 16 16 16 16 16
18 18 18 18 18 18 18 18 18 18 18 18 18 18 17 17 17 17 17 17 17 17 17 17 17 17 17 17 17 17 17 17 17 17 17 16 16 16 16 16 16 16 16
18 18 18 18 18 18 18 18 18 18 18 18 18 18 17 17 17 17 17 17 17 17 17 17 17 17 17 17 17 17 17 17 16 16 16 16 16 16 16 16 16 16 15
18 18 18 18 18 18 18 18 18 17 18 18 18 17 17 17 17 17 17 17 17 17 17 17 17 17 17 17 17 17 16 16 16 16 16 16 16 16 16 16 16 16 15
18 18 18 18 18 18 18 18 18 18 18 17 18 17 17 17 17 17 17 17 17 17 17 17 17 17 17 17 17 16 16 16 16 16 16 16 16 16 16 16 15 15 15
18 18 18 18 18 18 18 18 18 18 18 18 18 17 17 17 17 17 17 17 17 17 17 17 17 17 16 16 16 16 16 16 16 16 16 16 16 16 16 15 15 15 15
18 18 18 18 18 18 18 18 18 18 18 18 17 17 17 17 17 17 17 17 17 17 17 17 17 17 16 16 16 16 16 16 16 16 16 16 16 16 16 15 15 15 15
18 18 18 18 18 18 18 18 18 18 18 18 17 17 17 17 17 17 17 17 17 17 17 17 17 17 16 16 16 16 16 16 16 16 16 16 15 15 15 15 15 15 15
18 18 18 18 18 18 18 18 18 18 18 18 18 17 17 17 17 17 17 17 17 17 17 17 17 17 16 16 16 16 16 16 16 16 16 16 15 15 15 15 15 15 15
18 18 18 18 18 18 18 18 18 18 18 18 18 17 17 17 17 17 17 17 17 17 17 17 17 17 17 16 16 16 16 16 16 16 16 16 15 15 15 15 15 15 15
18 18 18 18 18 18 18 18 18 18 17 17 17 17 17 17 17 17 17 17 16 16 17 17 17 17 17 16 16 16 16 16 16 16 16 15 15 15 15 15 15 15 14
18 18 18 18 18 18 18 17 17 17 17 17 17 17 17 17 17 17 17 17 17 16 16 17 17 17 16 16 16 16 16 16 16 15 15 15 15 15 15 15 15 15 14
18 18 18 18 18 18 18 17 17 17 17 17 17 17 17 17 17 17 17 17 16 16 16 17 17 17 16 16 16 16 16 16 15 15 15 15 15 15 15 14 14 14 14
18 18 18 18 18 18 18 17 17 17 17 17 17 17 17 17 17 17 17 17 16 16 16 17 16 16 16 16 16 16 16 16 15 15 15 15 15 15 14 14 14 14 14
18 18 18 18 18 18 17 17 17 17 17 17 17 17 17 17 17 17 17 16 16 16 16 16 16 16 16 16 16 16 15 15 15 15 15 15 15 14 14 14 14 14 13
18 18 18 18 18 17 17 17 17 17 17 16 16 16 16 16 16 16 16 16 16 16 16 16 16 16 16 16 16 15 15 15 15 15 15 15 14 14 14 14 13 13 13
18 18 18 17 17 17 17 17 17 17 16 16 16 16 16 16 16 16 16 16 16 16 16 16 16 16 15 15 15 15 15 15 15 15 14 14 14 14 14 13 13 13 13
18 17 17 17 17 17 17 17 16 16 16 16 16 16 16 16 16 16 16 16 16 15 15 15 15 15 15 15 15 15 15 15 14 14 14 14 14 14 13 13 13 13 13
17 17 17 17 17 17 17 16 16 16 16 16 16 16 16 16 16 16 15 15 15 15 15 15 15 15 15 15 15 15 14 14 14 14 14 14 14 13 13 13 13 13 12
17 17 17 17 16 16 16 16 16 16 16 16 16 16 16 16 15 15 15 15 15 15 15 15 15 15 15 15 15 14 14 14 14 14 14 13 13 13 13 13 12 12 12
16 16 16 16 16 16 16 16 16 16 16 16 16 15 15 15 15 15 15 15 15 15 15 15 15 15 15 14 14 14 14 14 14 13 13 13 13 13 13 12 12 12 12
16 16 16 16 16 16 16 16 15 15 15 15 15 15 15 15 15 15 14 14 14 14 14 14 14 14 14 14 14 13 13 13 13 13 13 13 13 13 12 12 12 12 12
15 15 15 15 15 15 15 15 15 15 15 15 15 15 14 14 14 14 14 14 14 14 14 14 14 14 14 14 13 13 13 13 13 13 13 12 13 12 12 12 12 12 11
Wind_Speed
4 5 4 6 6 5 5 3 3 3 3 3 4 4 4 6 9 10 11 15 15 15 14 14 13 12 12 12 12 12 12 12 12 12 12 12 11 11 11 11 10 10 10
6 4 4 4 5 6 6 5 3 2 2 2 2 2 3 5 7 9 9 12 13 13 13 12 12 12 12 12 12 12 12 12 13 12 12 12 13 12 12 12 11 11 11
7 5 4 3 4 6 5 3 2 1 1 2 2 2 2 3 5 7 8 9 10 11 12 12 12 12 12 12 12 12 11 12 12 12 13 13 13 13 13 13 12 12 12
8 5 4 3 5 5 4 3 3 2 1 2 1 1 2 2 4 6 7 8 9 9 10 11 12 11 11 11 11 11 11 11 10 10 11 12 12 13 13 13 13 13 13
8 6 4 3 4 3 3 3 3 3 2 2 2 1 1 1 2 4 4 7 9 9 9 9 11 11 11 10 11 10 10 11 10 10 10 10 11 11 12 12 12 12 13
7 6 4 3 4 3 3 3 3 3 3 3 2 1 0 1 1 2 3 5 7 9 9 8 8 9 10 10 10 10 10 10 10 10 10 9 9 10 11 11 11 11 11
7 6 3 3 3 3 3 4 3 3 2 3 2 1 2 1 1 2 2 2 4 7 8 9 8 8 7 9 10 10 10 10 10 10 10 10 9 9 9 9 10 10 10
7 6 5 4 4 3 3 3 3 3 2 3 3 2 1 2 2 2 2 3 3 4 5 8 9 9 8 7 9 12 11 11 11 11 10 10 10 10 10 10 10 9 10
7 5 5 5 4 4 4 4 4 5 3 2 3 4 3 3 1 2 2 3 3 3 4 5 8 9 10 10 9 11 13 13 13 12 11 11 11 11 11 10 10 10 10
6 6 5 5 4 4 4 4 4 4 4 3 3 3 3 4 3 1 2 2 3 4 4 5 5 8 9 9 10 11 13 13 14 13 12 12 12 11 11 11 11 11 10
4 5 5 4 4 3 4 4 3 4 4 4 4 2 2 2 2 3 3 2 2 3 4 5 4 6 8 10 10 11 12 13 13 13 13 12 12 12 12 12 12 12 11
3 4 4 4 4 4 4 4 4 4 4 4 4 3 3 3 3 4 4 3 3 3 3 4 5 5 8 9 10 11 12 13 13 14 13 13 13 12 12 12 12 11 11
3 4 4 4 4 4 4 4 4 4 4 4 5 4 4 4 4 4 4 3 3 2 2 2 4 5 7 9 10 12 12 13 13 13 14 13 12 12 12 11 11 10 9
5 4 4 4 5 5 5 4 4 4 4 4 5 4 4 4 4 4 4 4 2 2 2 4 2 4 6 8 10 12 10 12 13 14 13 12 12 12 11 11 10 9 9
4 4 4 4 4 4 4 4 3 4 3 4 4 4 4 4 4 4 4 5 5 3 4 4 3 4 6 8 10 10 9 11 12 12 13 12 12 12 12 11 10 9 9
3 4 4 4 4 3 3 3 2 3 3 3 3 3 3 3 3 3 4 4 5 5 4 4 4 3 4 6 9 10 11 11 12 12 12 13 12 12 11 11 10 9 9
4 5 4 4 4 3 3 3 3 2 3 3 3 3 4 3 3 3 3 4 4 4 5 4 3 3 4 4 4 7 8 8 8 11 11 12 12 11 10 10 9 9 9
5 4 4 4 4 3 3 3 4 3 3 4 4 3 4 3 3 3 3 4 4 4 5 5 3 3 4 5 5 5 5 6 7 8 10 10 11 11 10 10 9 9 9
5 4 4 4 4 3 4 4 4 4 4 5 5 4 4 4 4 4 4 4 4 4 4 4 4 3 3 3 3 3 3 2 4 6 8 10 10 10 10 10 10 9 10
5 5 4 4 4 4 4 4 4 4 4 5 5 5 5 5 5 5 5 4 4 4 3 3 3 3 2 2 3 3 2 2 3 4 5 7 8 9 10 9 10 10 10
6 5 4 3 3 3 3 3 3 3 3 4 4 4 5 5 6 5 4 4 4 3 3 3 3 2 2 2 3 3 4 3 3 3 3 3 5 5 7 9 10 10 10
4 4 4 4 4 4 4 4 3 3 3 3 4 4 4 4 6 6 7 7 7 6 6 5 4 4 5 4 3 3 3 2 3 3 3 4 4 5 6 8 9 10 11
4 4 4 5 5 5 4 4 4 3 3 3 4 4 4 3 3 3 4 5 6 8 9 7 6 7 6 5 4 4 4 4 5 4 4 4 4 5 6 8 11 11 11
4 5 5 5 5 5 5 5 4 4 3 4 4 4 4 4 4 4 3 3 4 4 6 6 7 6 6 5 6 6 6 4 3 2 4 4 4 4 5 7 11 13 13
4 4 5 5 5 5 5 5 4 2 2 3 3 3 3 5 6 5 4 4 4 4 4 5 7 6 6 6 5 3 3 3 3 3 3 4 3 3 3 4 8 13 14
5 4 4 4 5 5 5 5 5 3 3 3 3 3 4 4 4 5 4 4 5 4 2 2 2 3 4 4 6 5 5 5 3 3 4 4 3 3 3 3 4 7 10
Wind_Direction
160 171 179 183 187 191 191 200 204 206 214 210 197 174 168 170 167 171 179 184 185 185 187 189 190 191 195 197 198 199 198 199 200 201 200 201 202 204 204 206 207 207 208
166 163 168 175 187 193 195 195 197 198 192 178 161 154 149 154 167 167 176 183 186 185 188 191 193 193 196 199 202 203 203 204 206 205 207 208 210 212 212 214 215 214 212
166 164 160 168 188 193 190 183 192 189 156 139 140 149 135 148 156 163 171 177 184 189 191 193 196 198 202 206 206 206 207 209 210 213 215 214 213 215 216 217 218 218 217
174 164 158 174 188 179 170 154 151 142 133 131 142 152 139 142 161 171 173 177 180 185 193 196 198 202 207 209 209 208 208 206 207 210 213 215 216 218 219 220 223 223 223
179 167 163 174 171 158 156 162 149 148 149 152 153 144 152 162 185 178 178 183 186 189 193 200 203 208 211 211 207 206 207 208 210 211 213 216 219 219 219 219 223 224 224
180 168 165 172 163 148 152 146 144 145 158 170 151 119 168 204 182 187 192 189 192 194 196 197 199 208 212 212 209 207 208 208 209 211 214 216 220 222 222 223 224 224 226
180 171 166 166 165 166 167 158 146 146 164 143 109 57 358 300 219 221 205 192 194 197 195 195 194 196 202 209 212 212 212 213 213 215 216 216 218 219 219 221 222 224 225
183 182 173 178 176 170 167 164 157 158 177 157 144 130 350 342 314 232 213 203 204 189 191 196 195 195 197 201 211 216 218 220 220 219 219 219 219 219 218 220 220 222 224
187 186 178 177 180 175 182 188 179 172 189 206 176 159 169 213 272 306 242 220 208 200 202 193 199 203 203 203 210 218 219 221 221 221 221 220 220 221 221 223 225 226 228
185 187 180 177 181 181 189 201 191 182 176 204 228 213 188 169 172 253 304 259 227 214 211 210 202 204 206 207 212 216 219 221 222 222 221 221 220 220 221 224 227 227 228
182 180 174 172 177 184 197 203 192 186 186 193 202 199 196 191 179 182 241 272 280 245 220 214 203 200 203 204 210 215 217 220 222 221 221 221 222 223 225 227 230 232 232
189 192 184 180 185 192 200 204 198 192 201 203 205 196 182 184 193 187 212 231 248 259 237 223 213 204 205 207 213 216 216 217 219 219 220 223 225 227 229 230 233 234 234
195 208 202 196 199 206 209 204 198 204 205 206 211 212 207 209 190 178 188 213 233 260 253 243 224 204 206 204 210 216 217 216 218 220 220 221 224 227 228 229 228 228 228
202 203 202 205 207 207 213 206 208 216 212 216 225 219 217 221 202 191 186 181 207 266 253 248 242 212 206 204 213 213 214 215 216 218 220 219 220 222 223 225 227 226 223
204 198 199 200 207 208 210 197 209 224 219 222 227 224 227 229 214 211 197 185 182 211 243 239 231 223 204 205 211 205 210 215 215 216 218 218 218 221 224 223 222 221 219
203 187 192 196 200 200 201 195 212 227 218 230 224 224 237 240 229 215 206 200 190 190 221 230 224 222 202 202 206 201 207 213 215 217 219 217 217 220 219 217 216 212 210
194 191 192 190 192 199 201 199 220 228 229 241 244 235 242 238 233 226 210 202 200 186 212 244 227 207 193 202 198 202 211 208 213 218 217 215 213 212 210 212 211 209 208
194 193 188 190 202 206 203 201 219 229 230 243 248 245 248 244 238 225 208 209 211 200 195 225 233 207 210 206 195 195 200 207 209 214 209 208 210 212 212 211 211 208 206
194 192 190 197 206 206 206 211 214 222 227 234 238 237 244 235 240 234 219 215 214 210 194 200 226 216 217 195 174 194 194 200 208 210 204 206 210 211 212 212 211 209 207
192 195 198 204 205 204 209 216 218 226 238 242 240 235 234 227 229 228 227 220 209 203 198 200 216 218 213 201 170 185 207 219 220 209 203 204 206 209 213 213 214 212 210
199 199 197 209 212 209 221 221 225 233 244 257 255 246 242 232 226 219 219 208 196 198 195 204 217 218 217 194 205 197 205 212 234 207 196 209 206 213 217 220 220 217 212
198 193 200 202 212 229 232 219 216 231 237 244 257 260 260 249 238 222 220 213 199 200 206 210 221 221 227 216 207 199 188 193 239 213 188 221 202 216 220 218 220 216 214
200 202 209 204 215 229 224 223 223 220 232 242 250 256 265 264 231 221 228 229 227 222 211 206 215 224 221 214 199 207 204 203 220 205 179 217 205 218 225 223 218 215 213
206 209 215 210 216 232 227 226 227 224 233 241 242 240 238 245 234 217 216 227 241 242 226 218 217 223 222 210 202 208 211 212 233 216 179 203 203 213 220 219 218 216 215
215 221 220 213 213 238 239 228 208 221 243 254 251 249 243 240 242 215 201 220 243 261 254 230 220 217 215 209 195 173 177 184 230 235 200 191 201 199 209 225 222 218 217
217 221 229 218 210 224 233 217 195 198 231 253 265 261 252 246 238 206 200 209 234 249 244 266 254 242 231 222 204 196 194 198 208 226 210 191 196 176 215 229 215 215 217
Height
1542 1544 1545 1546 1548 1549 1550 1552 1553 1554 1555 1556 1557 1557 1558 1559 1560 1561 1562 1562 1563 1564 1565 1565 1566 1566 1567 1568 1568 1569 1569 1570 1570 1571 1572 1572 1573 1574 1574 1575 1575 1576 1576
1543 1544 1545 1547 1548 1549 1551 1552 1553 1554 1555 1556 1557 1557 1558 1559 1560 1561 1561 1562 1563 1563 1564 1564 1565 1566 1566 1567 1567 1568 1568 1569 1569 1570 1570 1571 1572 1572 1573 1573 1574 1574 1575
1543 1544 1545 1546 1548 1549 1550 1552 1553 1554 1555 1555 1556 1557 1558 1559 1559 1560 1560 1561 1562 1562 1563 1563 1564 1565 1565 1566 1566 1566 1567 1567 1568 1568 1569 1569 1570 1570 1571 1572 1572 1573 1573
1543 1544 1545 1546 1548 1549 1550 1551 1552 1553 1554 1555 1555 1557 1557 1558 1558 1559 1559 1560 1561 1561 1562 1562 1563 1563 1564 1564 1564 1565 1565 1566 1566 1567 1567 1567 1568 1568 1569 1570 1570 1571 1571
1543 1544 1545 1546 1547 1548 1549 1550 1551 1553 1553 1554 1555 1556 1557 1557 1558 1558 1558 1559 1559 1560 1560 1561 1561 1562 1562 1562 1563 1563 1563 1564 1564 1564 1565 1565 1566 1566 1567 1567 1568 1568 1569
1543 1544 1545 1546 1547 1547 1548 1549 1551 1552 1552 1553 1554 1555 1556 1556 1557 1557 1557 1557 1558 1558 1559 1559 1559 1560 1560 1561 1561 1561 1561 1562 1562 1562 1562 1563 1563 1564 1564 1565 1565 1566 1566
1542 1543 1544 1545 1546 1546 1547 1548 1549 1550 1551 1552 1553 1553 1554 1555 1555 1555 1555 1556 1556 1556 1557 1557 1557 1558 1558 1558 1559 1559 1559 1559 1559 1560 1560 1560 1561 1561 1562 1562 1562 1563 1563
1541 1542 1543 1544 1545 1545 1546 1547 1548 1549 1550 1551 1551 1552 1552 1554 1552 1553 1553 1554 1554 1555 1555 1555 1555 1555 1556 1556 1556 1557 1557 1557 1557 1557 1557 1558 1558 1559 1559 1559 1560 1560 1560
1540 1541 1542 1543 1544 1544 1545 1546 1547 1548 1548 1549 1550 1550 1550 1550 1550 1551 1551 1552 1552 1552 1553 1553 1553 1553 1554 1554 1554 1554 1554 1554 1554 1554 1554 1555 1555 1556 1556 1556 1557 1557 1557
1539 1540 1540 1541 1542 1543 1543 1544 1545 1545 1546 1546 1547 1548 1548 1548 1549 1549 1549 1549 1550 1550 1550 1550 1550 1551 1551 1551 1551 1551 1551 1551 1552 1552 1552 1552 1553 1553 1553 1554 1554 1554 1555
1538 1538 1539 1540 1540 1541 1541 1542 1543 1543 1544 1544 1544 1545 1545 1546 1546 1546 1546 1547 1547 1547 1548 1548 1548 1548 1548 1548 1548 1548 1548 1548 1549 1549 1549 1550 1550 1550 1551 1551 1551 1551 1551
1536 1537 1537 1538 1538 1539 1539 1540 1541 1541 1542 1542 1542 1543 1543 1543 1543 1544 1543 1544 1544 1545 1545 1545 1545 1545 1545 1545 1545 1545 1545 1545 1546 1546 1546 1547 1547 1547 1548 1548 1548 1548 1548
1534 1534 1535 1536 1536 1537 1538 1538 1538 1538 1539 1539 1540 1540 1540 1540 1541 1541 1541 1541 1541 1541 1542 1542 1542 1542 1542 1543 1543 1543 1542 1543 1543 1543 1544 1544 1544 1544 1545 1545 1545 1545 1545
1532 1533 1533 1534 1534 1535 1535 1535 1536 1536 1536 1536 1537 1537 1537 1537 1538 1538 1538 1539 1538 1538 1538 1539 1539 1539 1540 1540 1540 1540 1540 1540 1540 1540 1541 1541 1541 1541 1542 1542 1542 1542 1542
1530 1531 1531 1531 1532 1532 1532 1532 1533 1533 1533 1533 1533 1534 1534 1534 1534 1535 1535 1535 1536 1535 1535 1535 1536 1537 1537 1538 1538 1538 1538 1538 1538 1538 1538 1538 1538 1538 1538 1539 1539 1539 1539
1528 1528 1529 1529 1529 1529 1529 1530 1529 1530 1530 1530 1530 1530 1530 1530 1530 1531 1531 1531 1532 1532 1531 1532 1532 1533 1534 1535 1535 1535 1535 1535 1535 1535 1535 1535 1535 1535 1536 1536 1536 1536 1536
1525 1526 1526 1526 1526 1526 1526 1526 1526 1526 1526 1526 1526 1526 1526 1526 1526 1527 1527 1527 1528 1529 1528 1528 1529 1530 1531 1531 1532 1532 1532 1532 1532 1532 1532 1532 1532 1533 1533 1533 1533 1533 1533
1522 1523 1523 1523 1523 1523 1523 1523 1523 1523 1522 1522 1522 1523 1522 1523 1522 1523 1523 1523 1524 1525 1525 1525 1525 1526 1527 1528 1529 1529 1529 1529 1529 1529 1529 1529 1529 1529 1529 1529 1529 1529 1529
1518 1519 1519 1520 1520 1520 1520 1519 1519 1519 1519 1519 1519 1519 1519 1519 1518 1519 1519 1519 1520 1521 1521 1521 1521 1522 1523 1524 1525 1525 1526 1526 1526 1526 1525 1525 1526 1526 1526 1526 1526 1525 1525
1515 1515 1516 1516 1516 1516 1516 1516 1516 1516 1515 1515 1515 1515 1515 1515 1515 1515 1515 1515 1516 1516 1517 1517 1517 1518 1519 1520 1521 1521 1521 1522 1522 1522 1522 1522 1522 1522 1522 1522 1522 1522 1522
1511 1511 1512 1512 1513 1513 1512 1512 1512 1512 1511 1511 1511 1511 1511 1511 1511 1511 1511 1511 1512 1512 1513 1513 1513 1514 1514 1515 1516 1516 1517 1518 1518 1518 1518 1518 1518 1518 1518 1518 1518 1518 1518
1506 1507 1507 1508 1508 1509 1509 1508 1508 1508 1507 1507 1506 1506 1506 1507 1507 1507 1507 1508 1508 1509 1509 1509 1509 1509 1509 1510 1511 1512 1513 1513 1514 1514 1514 1514 1514 1514 1514 1514 1514 1514 1514
1502 1502 1503 1504 1504 1505 1505 1505 1504 1503 1503 1503 1502 1502 1502 1502 1503 1502 1503 1503 1504 1504 1505 1505 1505 1504 1505 1506 1507 1508 1508 1509 1509 1510 1510 1509 1510 1510 1510 1510 1510 1510 1510
1498 1499 1499 1499 1500 1500 1500 1500 1500 1499 1498 1498 1498 1498 1498 1498 1498 1498 1498 1498 1499 1499 1499 1500 1500 1500 1501 1502 1503 1504 1504 1505 1505 1506 1506 1505 1505 1505 1506 1506 1506 1507 1507
1494 1495 1495 1495 1495 1495 1496 1496 1496 1495 1494 1494 1494 1494 1494 1494 1494 1494 1494 1493 1493 1494 1494 1494 1495 1495 1496 1497 1498 1499 1499 1499 1499 1499 1500 1500 1500 1500 1501 1501 1502 1503 1503
1490 1490 1490 1491 1491 1491 1491 1491 1492 1491 1490 1490 1489 1489 1489 1489 1489 1489 1489 1489 1488 1489 1489 1490 1490 1490 1491 1492 1493 1494 1494 1494 1494 1494 1495 1495 1495 1496 1496 1497 1498 1498 1499